Voltar ao catálogo

STARLINK-35918

AtivoComunicaçõesVLEO
NORAD 66643·PAYLOAD·🇺🇸 United States

Lançado Nov 23, 2025 de Vandenberg Space Force Base

Loading…

Próximas Passagens (próximas 24 horas)

TLE

AtualizadoSource: CelesTrak SupGP

Época: Sep 15, 2026, 03:41 UTC

1 66643C 25271AC  26258.15395833  .00061331  00000+0  18112-2 0  2588
2 66643  53.1599 334.8770 0001281  82.1999 332.0047 15.34374531    17

Acompanhe STARLINK-35918 em tempo real com AllMySat

Download on the App Store